軌道要素
Epoch 2021 Nov. 2.0 TT = JDT 2459520.5
T 2021 Nov. 2.85126 TT Rudenko
q 3.1425930 (2000.0) P Q
n 0.12426038 Peri. 149.74456 +0.31194978 +0.94585799
a 3.9772321 Node 138.24804 -0.89646044 +0.32428625
e 0.2098542 Incl. 7.73852 -0.31471577 +0.01382326
P 7.93
From 241 observations 2005 May 16-Sept. 15, mean residual 0".5.
|